Showing default

DIRECTV 15, 40663

Orbit data source: Space-Track

DIRECTV 15, 40663 is a payload satellite owned by DirecTV (US) in GEO that was launched on Wed, 27 May 2015 UTC via an ARIANE 5ECA launch vehicle from the French Guiana (FRGUI). Payload-class satellites include a variety of spacecraft equipped with specific instruments for various scientific and technological missions. These include communications satellites like Starlink; space stations such as the ISS; scientific satellites like the Hubble; Earth observation satellites from companies like Planet Labs, Umbra, and HawkEye 360; GPS; miniature CubeSats for education and research; and military/defense satellites.

Loading next visibility...
Identifier
40663, 2015-026A
Orbit
GEO
Country
Flag of USUS
Related business
Manufacturer
Airbus/Toulouse
Mission
Operational Commercial Communications
Bus & Motor
EUROSTAR 3000, R-4D?
Mass
6,205 kg wet, 3,381 kg dry
Launch date (UTC)
2015-05-27 (10 years ago)
Launch vehicle
ARIANE 5ECA
Launch site
French Guiana (FRGUI)
Object type
Payload
Rocket body
Debris
Shape & HBR
Box + 2 Pan, 22.5 m
Radar Cross Section
49.053 m², Large (>1 m²)

Expand to show TLE details & history
Last TLE update: 20 hours ago

TLE from 20 hours ago
0 DIRECTV 15
1 40663U 15026A   25306.51976858  .00000000  00000-0  00000+0 0  9997
2 40663   0.0214  93.8731 0000520 159.3767 233.0511  1.00277672 38192
Epoch: 2025-11-02T12:28Z
TLE epoch observation values (Epoch: 2025-11-02T12:28:28.005Z)
Latitude
-0.00113°
Longitude
-102.89405°
Altitude
35,785.748 km
Speed
3.075 km/s
True Right ascension
08h 25m 01s
True Declination
0° 00' 04"
Sunlit
Object was in daylight at epoch
Visualization orbit readout
Latitude
Unknown
Longitude
Unknown
Altitude
Unknown
Speed
Unknown
Apparent Right ascension
Unknown
Apparent Declination
Unknown
Sunlit
N/A
Visualization observer readout
Local Sidereal Time
04:13:53
Azimuth
Unknown
Elevation
Unknown
Doppler factor
Unknown
Orbital elements
Apogee altitude
35,788.208 km
Perigee altitude
35,783.823 km
Semi-major axis
42,164.152 km
Eccentricity
0.00005
Inclination
0.0214°
RAAN
93.8731°
Arg. of periapsis
159.3767°
True anomaly
233.04634°
Mean anomaly
233.0511°
Eccentric anomaly
233.04872°
Mean motion
0.25068 °/min
Orbital period
1,436.07 mins
BSTAR
0
Loading maneuver chart data...
Computing Atmospheric mass density...
Loading historical data...
Loading historical data...
Loading historical data...
Loading historical data...
Loading historical data...
Loading historical data...
Loading historical data...
Other satellites on launch #26 in the year 2015 (2015-05-27 UTC)

Documentation

Showing up to 5 results
|